Location: Unspecified
(50.5678°N, 9.7144°E)
Time: 02:29:00
(UTC+01:00)

ISS - Pass Details

Date: 28 July 2018
Orbit: 403 x 411 km, 51.6° (Epoch: 21 February)

Event Time Altitude Azimuth Distance (km) Brightness Sun altitude
Rises 00:10:07 0° 285° (WNW) 2,355 0.5 -18.3°
Reaches altitude 10° 00:12:13 10° 283° (WNW) 1,495 -0.6 -18.4°
Maximum altitude 00:15:32 65° 201° (SSW) 464 -3.8 -18.6°
Enters shadow 00:15:33 65° 200° (SSW) 464 -3.8 -18.6°
